DW3320 Weather Reports


time (UTC)temp
F
wind
direction
speed
knots
gust
knots
rain 1hr
in
rain 24hr
in
rain mn
in
humidity
%
barometer
mb
20260504023053 47 313 0.0 1.7 0.00 0.00 0.00 81 1017.3
20260504021548 47 0 0.0 0.9 0.00 0.00 0.00 80 1017.3
20260504020047 48 0 0.0 0.0 0.00 0.00 0.00 79 1017.2
20260504014554 49 0 0.0 0.0 0.00 0.00 0.00 78 1017.1
20260504013048 49 0 0.0 0.0 0.00 0.00 0.00 70 1017.1
20260504011549 50 0 0.0 0.0 0.00 0.00 0.00 71 1017.0
20260504010104 52 0 0.0 0.0 0.00 0.00 0.00 74 1016.8
20260504004549 53 0 0.0 0.0 0.00 0.00 0.00 70 1016.6
20260504003044 54 0 0.0 0.0 0.00 0.00 0.00 64 1016.4
20260504001553 56 0 0.0 0.0 0.00 0.00 0.00 62 1016.1
20260504000047 58 0 0.0 0.0 0.00 0.00 0.00 48 1016.0
20260503234546 61 0 0.0 1.7 0.00 0.00 0.00 49 1015.9
20260503233048 63 0 0.0 1.7 0.00 0.00 0.00 36 1015.8
20260503231549 63 290 0.9 4.3 0.00 0.00 0.00 34 1015.7
20260503230049 63 270 0.9 4.3 0.00 0.00 0.00 34 1015.9
20260503224545 62 326 3.5 9.6 0.00 0.00 0.00 34 1015.8
20260503223045 62 331 4.3 7.8 0.00 0.00 0.00 35 1015.8
20260503221550 62 302 2.6 8.7 0.00 0.00 0.00 33 1015.9
20260503214545 61 322 6.1 13.0 0.00 0.00 0.00 33 1015.7
20260503213049 61 336 4.3 11.3 0.00 0.00 0.00 35 1015.7
20260503211548 61 300 6.1 11.3 0.00 0.00 0.00 37 1015.6
20260503210054 61 308 7.0 13.0 0.00 0.00 0.00 35 1015.5
20260503204601 61 6 4.3 9.6 0.00 0.00 0.00 34 1015.4
20260503203054 60 328 7.0 9.6 0.00 0.00 0.00 36 1015.5
20260503201542 60 306 7.0 13.0 0.00 0.00 0.00 44 1015.6
20260503200045 59 65 6.1 12.2 0.00 0.00 0.00 35 1015.8
20260503194603 59 348 7.8 16.5 0.00 0.00 0.00 37 1016.1
20260503193051 59 303 7.0 13.9 0.00 0.00 0.00 36 1016.1
20260503191544 59 316 5.2 16.5 0.00 0.00 0.00 40 1016.3
20260503190046 58 297 8.7 16.5 0.00 0.00 0.00 38 1016.4
20260503184551 58 264 3.5 12.2 0.00 0.00 0.00 42 1016.5
20260503183052 57 336 8.7 20.0 0.00 0.00 0.00 38 1016.8
20260503181546 56 288 7.0 11.3 0.00 0.00 0.00 40 1016.8
20260503180056 56 334 9.6 14.8 0.00 0.00 0.00 38 1017.0
20260503174542 56 278 3.5 13.9 0.00 0.00 0.00 42 1017.1
20260503173136 55 302 7.0 13.0 0.00 0.00 0.00 45 1017.3
20260503171548 55 331 7.0 13.9 0.00 0.00 0.00 45 1017.3
20260503081557 51 354 6.1 12.2 0.00 0.00 0.00 61 1013.7
20260503071551 52 2 6.1 12.2 0.00 0.00 0.00 62 1013.3
20260503054545 49 14 0.9 2.6 0.00 0.00 0.00 77 1012.8
20260503053049 49 3 1.7 3.5 0.00 0.00 0.00 77 1012.9
20260503051551 49 330 1.7 3.5 0.00 0.00 0.00 77 1013.1
20260503050051 49 6 1.7 3.5 0.00 0.00 0.00 78 1013.0
20260503044548 49 13 1.7 2.6 0.00 0.00 0.00 79 1013.0
20260503043046 48 331 0.9 2.6 0.00 0.00 0.00 77 1013.2
20260503041546 49 18 0.0 1.7 0.00 0.00 0.00 79 1013.1
20260503040048 49 348 0.9 1.7 0.00 0.00 0.00 77 1013.0
20260503034550 49 346 0.9 2.6 0.00 0.00 0.00 77 1012.9
20260503033048 50 11 0.9 2.6 0.00 0.00 0.00 75 1012.8
20260503031555 50 328 0.9 1.7 0.00 0.00 0.00 76 1012.8
20260503030049 51 0 0.0 2.6 0.00 0.00 0.00 75 1013.0
20260503024548 51 324 1.7 1.7 0.00 0.00 0.00 76 1012.8